Stations météo

Publicité
Calvi, France (7754): Température de l'air & dewpoint: 14.04.2019 22:00:00 - 20.04.2019 22:00:00 (CEST)Calvi, France (7754): Température de l'air 5cm: 14.04.2019 22:00:00 - 20.04.2019 22:00:00 (CEST)Calvi, France (7754): Vitesse du vent & gusts: 14.04.2019 22:00:00 - 20.04.2019 22:00:00 (CEST)Calvi, France (7754): Direction du vent: 14.04.2019 22:00:00 - 20.04.2019 22:00:00 (CEST)Calvi, France (7754): reduced air pressure: 14.04.2019 22:00:00 - 20.04.2019 22:00:00 (CEST)Calvi, France (7754): visibility: 14.04.2019 22:00:00 - 20.04.2019 22:00:00 (CEST)Calvi, France (7754): Quantités de précipitations: 14.04.2019 22:00:00 - 20.04.2019 22:00:00 (CEST)
Date & Time tt [°C] td [°C] tt 5cm [°C] ff [km/h] ff [knt] fx [km/h] fx [knt] dd ppp [hPa] vv [km] rr [mm]
20.04.2019 22:00:00 15,8 8,5 14,9 4 2 11 6 SSE 1017,9 27 0,0
20.04.2019 21:00:00 17,2 7,0 16,4 7 4 14 8 S 1017,5 40 0,0
20.04.2019 20:00:00 17,4 8,5 17,0 8 4 17 9 S 1017,5 43 0,0
20.04.2019 19:00:00 18,4 8,9 18,1 7 4 18 10 N 1018,7 45 0,0
20.04.2019 18:00:00 20,0 9,3 20,6 10 5 21 11 NNE 1019,1 48 0,0
20.04.2019 17:00:00 22,7 8,4 23,8 10 5 20 11 WSW 1018,8 52 0,0
20.04.2019 16:00:00 24,0 5,8 27,1 9 5 21 11 WSW 1018,5 50 0,0
20.04.2019 15:00:00 24,4 5,2 27,9 6 3 16 9 SSE 1018,9 60 0,0
20.04.2019 14:00:00 24,2 6,0 26,9 5 3 19 11 E 1019,5 45 0,0
20.04.2019 13:00:00 22,6 8,3 25,8 11 6 21 11 WNW 1020,6 46 0,0
20.04.2019 12:00:00 21,4 9,0 24,9 9 5 24 13 NW 1021,5 31 0,0
20.04.2019 11:00:00 20,4 9,3 22,8 12 7 21 11 NNW 1022,3 20 0,0
20.04.2019 10:00:00 20,3 8,3 21,2 8 4 15 8 N 1022,8 17 0,0
20.04.2019 09:00:00 17,7 7,1 16,4 3 2 6 3 SSW 1022,9 27 0,0
20.04.2019 08:00:00 13,0 6,8 8,6 2 1 10 5 SSW 1023,1 19 0,0
20.04.2019 07:00:00 8,8 4,8 7,2 9 5 11 6 S 1022,9 28 0,0
20.04.2019 06:00:00 8,4 4,4 7,7 9 5 17 9 S 1023,0 44 0,0
20.04.2019 05:00:00 10,2 5,2 7,8 10 5 14 8 S 1023,3 31 0,0
20.04.2019 04:00:00 9,2 5,0 8,0 9 5 12 7 S 1023,4 33 0,0
20.04.2019 03:00:00 9,6 5,2 8,3 6 4 14 8 S 1023,5 28 0,0
20.04.2019 02:00:00 9,8 5,2 8,8 8 4 16 8 S 1024,1 29 0,0
20.04.2019 01:00:00 11,8 6,1 9,4 13 7 19 10 SSW 1024,7 37 0,0
20.04.2019 00:00:00 10,3 6,1 9,1 7 4 13 7 S 1025,3 23 0,0
19.04.2019 23:00:00 10,8 6,2 9,7 5 3 11 6 SSW 1025,6 20 0,0
19.04.2019 22:00:00 12,0 6,7 10,9 8 4 11 6 SSW 1025,3 34 0,0
19.04.2019 21:00:00 13,7 7,9 12,4 6 3 13 7 SSW 1024,8 35 0,0
19.04.2019 20:00:00 16,2 10,3 15,0 6 3 7 4 SSW 1023,9 18 0,0
19.04.2019 19:00:00 20,4 8,1 23,4 4 2 16 9 NE 1023,5 54 0,0
19.04.2019 18:00:00 19,7 10,4 23,5 11 6 21 12 N 1023,7 44 0,0
19.04.2019 17:00:00 20,6 10,1 25,6 15 8 27 14 N 1023,5 20 0,0
19.04.2019 16:00:00 23,5 2,9 29,4 4 2 20 11 E 1023,5 60 0,0
19.04.2019 15:00:00 23,5 3,9 27,2 10 6 27 15 WSW 1024,0 60 0,0
19.04.2019 14:00:00 23,6 4,0 25,8 12 6 26 14 WSW 1024,1 50 0,0
19.04.2019 13:00:00 22,9 5,3 26,3 12 7 21 12 NNW 1024,0 52 0,0
19.04.2019 12:00:00 22,2 4,7 24,2 10 5 21 11 NNW 1024,1 57 0,0
19.04.2019 11:00:00 19,8 9,1 22,4 11 6 17 9 NNE 1024,2 60 0,0
19.04.2019 10:00:00 19,7 8,1 20,8 3 2 8 4 N 1023,8 27 0,0
19.04.2019 09:00:00 17,3 7,1 14,0 2 1 7 4 NNE 1023,4 16 0,0
19.04.2019 08:00:00 12,2 6,5 7,8 6 3 13 7 S 1023,4 58 0,0
19.04.2019 07:00:00 8,6 4,0 7,1 5 3 14 8 S 1023,2 46 0,0
19.04.2019 06:00:00 8,2 4,2 7,0 9 5 16 9 S 1022,9 35 0,0
19.04.2019 05:00:00 10,0 4,8 7,5 11 6 16 9 S 1022,4 47 0,0
19.04.2019 04:00:00 9,1 5,1 8,1 8 4 14 8 S 1022,0 34 0,0
19.04.2019 03:00:00 9,8 5,8 8,7 5 3 13 7 S 1021,8 40 0,0
19.04.2019 02:00:00 10,1 6,4 9,3 9 5 15 8 SSW 1021,8 29 0,0
19.04.2019 01:00:00 11,1 7,8 9,3 10 6 14 8 S 1021,8 29 0,0
19.04.2019 00:00:00 10,8 8,2 9,8 6 3 14 7 S 1022,1 24 0,0
18.04.2019 23:00:00 11,9 8,9 11,0 5 3 14 8 SSW 1022,1 23 0,0
18.04.2019 22:00:00 12,5 9,9 11,9 6 3 8 5 S 1021,7 27 0,0
18.04.2019 21:00:00 14,8 10,2 13,3 3 2 10 5 E 1020,9 27 0,0
18.04.2019 20:00:00 16,6 10,4 15,9 8 5 12 6 E 1019,7 44 0,0
18.04.2019 19:00:00 20,1 9,6 21,2 6 3 21 12 NNW 1018,8 49 0,0
18.04.2019 18:00:00 21,2 10,1 25,0 14 8 20 11 N 1018,4 47 0,0
18.04.2019 17:00:00 21,5 10,3 26,5 11 6 21 11 N 1018,6 36 0,0
18.04.2019 16:00:00 21,2 10,7 26,6 13 7 22 12 N 1018,7 20 0,0
18.04.2019 15:00:00 20,9 10,4 24,1 11 6 23 12 N 1018,9 19 0,0
18.04.2019 14:00:00 20,1 9,6 23,5 16 8 25 14 N 1019,4 50 0,0
18.04.2019 13:00:00 19,6 10,8 23,9 16 9 22 12 NNE 1019,8 55 0,0
18.04.2019 12:00:00 19,3 10,3 23,1 12 6 20 11 NNE 1020,3 56 0,0
18.04.2019 11:00:00 18,5 10,6 21,0 10 6 15 8 NNE 1020,6 45 0,0
18.04.2019 10:00:00 18,0 10,4 19,3 0 0 8 4 N 1020,3 40 0,0
18.04.2019 09:00:00 15,6 9,9 14,1 0 0 5 3 N 1020,0 22 0,0
18.04.2019 08:00:00 11,2 9,5 7,4 3 1 10 6 SSW 1019,9 49 0,0
18.04.2019 07:00:00 7,9 6,8 6,3 7 4 9 5 S 1019,7 15 0,0
18.04.2019 06:00:00 8,0 6,5 7,1 5 3 14 7 SSE 1019,6 28 0,0
18.04.2019 05:00:00 8,5 7,1 7,8 11 6 17 9 S 1020,0 24 0,0
18.04.2019 04:00:00 8,6 7,8 6,9 10 5 15 8 S 1020,4 11 0,0
18.04.2019 03:00:00 8,7 7,5 7,9 7 4 14 8 SSW 1020,6 22 0,2
18.04.2019 02:00:00 9,2 7,8 8,5 8 5 18 10 S 1021,2 24 0,0
18.04.2019 01:00:00 9,3 8,2 7,7 8 5 13 7 S 1021,5 19 0,0
18.04.2019 00:00:00 8,9 7,7 8,0 7 4 10 5 S 1021,1 11 0,0
17.04.2019 23:00:00 9,9 8,5 9,0 4 2 13 7 S 1021,0 18 0,0
17.04.2019 22:00:00 10,0 8,1 9,2 5 3 10 5 SSW 1020,8 22 0,0
17.04.2019 21:00:00 11,7 9,1 10,9 6 3 10 6 S 1020,5 10 0,0
17.04.2019 20:00:00 14,0 10,0 13,4 2 1 12 6 NW 1020,0 60 0,0
17.04.2019 19:00:00 15,4 10,4 16,5 8 4 16 9 NNW 1020,0 57 0,0
17.04.2019 18:00:00 16,2 10,7 20,1 10 5 19 10 NNW 1020,1 60 0,0
17.04.2019 17:00:00 16,4 11,1 18,8 8 5 16 9 NNW 1020,4 20 0,0
17.04.2019 16:00:00 15,8 11,0 18,5 9 5 21 12 NNW 1020,7 59 0,0
17.04.2019 15:00:00 15,9 10,6 18,6 16 9 27 14 N 1020,9 60 0,0
17.04.2019 14:00:00 16,4 10,3 19,8 14 7 25 13 NNW 1020,5 47 0,0
17.04.2019 13:00:00 16,4 10,5 20,6 15 8 24 13 NNW 1020,9 50 0,0
17.04.2019 12:00:00 16,2 10,3 19,6 13 7 23 12 NNW 1021,0 57 0,0
17.04.2019 11:00:00 16,0 9,6 17,6 15 8 23 12 N 1021,0 60 0,0
17.04.2019 10:00:00 16,1 9,0 18,0 7 4 14 8 N 1020,6 60 0,0
17.04.2019 09:00:00 14,5 9,5 12,7 2 1 9 5 S 1020,5 53 0,0
17.04.2019 08:00:00 10,1 8,4 5,9 5 3 10 6 S 1020,7 54 0,0
17.04.2019 07:00:00 6,6 5,4 5,7 6 3 11 6 SSW 1020,4 56 0,0
17.04.2019 06:00:00 6,8 5,6 5,7 6 3 10 5 S 1020,4 35 0,0
17.04.2019 05:00:00 7,0 5,5 6,0 3 1 15 8 S 1020,5 29 0,0
17.04.2019 04:00:00 7,6 6,4 7,0 10 5 14 7 SSW 1020,4 19 0,0
17.04.2019 03:00:00 8,0 6,8 7,4 9 5 12 7 S 1020,5 24 0,0
17.04.2019 02:00:00 8,3 7,1 7,7 10 5 13 7 SSW 1020,9 26 0,0
17.04.2019 01:00:00 8,9 7,5 8,1 6 3 9 5 S 1020,9 21 0,0
17.04.2019 00:00:00 9,8 8,6 8,9 4 2 10 5 SSW 1021,1 30 0,0
16.04.2019 23:00:00 9,5 7,9 8,6 4 2 10 6 S 1021,1 19 0,0
16.04.2019 22:00:00 11,1 9,2 10,2 5 3 8 4 S 1020,9 28 0,0
16.04.2019 21:00:00 12,4 10,1 11,8 0 0 8 4 N 1020,6 32 0,0
16.04.2019 20:00:00 13,3 9,9 12,9 2 1 5 3 WSW 1020,3 35 0,0
16.04.2019 19:00:00 13,6 9,4 13,9 0 0 9 5 N 1020,2 57 0,0
16.04.2019 18:00:00 13,8 9,6 14,7 5 3 16 8 NNW 1020,2 54 0,0
16.04.2019 17:00:00 14,0 9,6 15,2 10 5 18 10 NNW 1019,9 20 0,0
16.04.2019 16:00:00 14,7 10,5 16,9 11 6 16 9 N 1019,9 55 0,0
16.04.2019 15:00:00 15,8 9,7 17,5 4 2 16 8 NE 1020,0 53 0,0
16.04.2019 14:00:00 15,3 9,6 14,4 3 1 13 7 S 1020,1 55 0,0
16.04.2019 13:00:00 14,4 9,8 15,2 9 5 18 10 S 1020,8 30 0,2
16.04.2019 12:00:00 14,1 9,5 15,2 13 7 25 14 S 1020,8 57 0,0
16.04.2019 11:00:00 15,2 9,3 16,3 9 5 21 11 SW 1020,0 60 0,0
16.04.2019 10:00:00 14,5 9,7 14,5 2 1 6 4 N 1019,5 56 0,0
16.04.2019 09:00:00 13,5 9,5 12,7 4 2 9 5 SW 1019,5 55 0,0
16.04.2019 08:00:00 11,8 9,0 9,8 6 4 9 5 S 1019,3 42 0,0
16.04.2019 07:00:00 10,0 8,1 9,2 5 3 11 6 S 1018,8 30 0,0
16.04.2019 06:00:00 9,6 7,5 8,7 5 3 11 6 SSW 1018,4 32 0,0
16.04.2019 05:00:00 9,7 7,5 8,5 7 4 11 6 S 1018,5 42 0,0
16.04.2019 04:00:00 9,1 6,9 8,0 7 4 13 7 S 1018,6 39 0,0
16.04.2019 03:00:00 9,0 7,1 7,9 11 6 15 8 S 1018,5 33 0,0
16.04.2019 02:00:00 8,7 7,0 8,1 5 3 13 7 S 1018,7 28 0,0
16.04.2019 01:00:00 9,2 7,5 8,5 10 5 12 7 S 1018,9 28 0,0
16.04.2019 00:00:00 9,1 7,0 8,4 6 3 8 5 SSW 1019,2 19 0,0
15.04.2019 23:00:00 9,8 7,6 8,7 3 2 10 5 S 1019,0 19 0,0
15.04.2019 22:00:00 10,7 7,6 9,7 2 1 12 7 S 1018,9 23 0,0
15.04.2019 21:00:00 11,6 7,9 10,8 8 4 12 6 S 1018,4 13 0,0
15.04.2019 20:00:00 14,4 7,2 13,0 4 2 17 9 N 1017,8 55 0,0
15.04.2019 19:00:00 16,4 6,8 17,1 11 6 23 12 N 1017,4 60 0,0
15.04.2019 18:00:00 17,4 7,4 19,0 9 5 29 16 NNE 1017,4 54 0,0
15.04.2019 17:00:00 17,3 9,5 18,1 11 6 35 19 N 1017,1 47 0,0
15.04.2019 16:00:00 17,2 9,4 21,0 16 9 34 18 NNW 1017,2 46 0,0
15.04.2019 15:00:00 17,2 9,9 20,2 23 12 40 21 N 1017,4 31 0,0
15.04.2019 14:00:00 17,3 9,2 18,9 22 12 39 21 N 1017,5 29 0,0
15.04.2019 13:00:00 17,3 9,0 17,9 23 12 37 20 N 1017,6 20 0,0
15.04.2019 12:00:00 16,3 8,5 17,5 22 12 37 20 N 1017,8 33 0,0
15.04.2019 11:00:00 14,8 8,3 14,6 26 14 36 19 N 1017,7 37 0,0
15.04.2019 10:00:00 14,9 7,7 14,2 16 9 41 22 NNE 1017,0 33 0,0
15.04.2019 09:00:00 13,5 8,3 11,5 28 15 41 22 N 1016,4 31 0,0
15.04.2019 08:00:00 12,0 8,7 8,4 17 9 27 14 NNE 1016,3 31 0,0
15.04.2019 07:00:00 9,7 7,6 8,3 8 4 16 9 NNE 1015,8 37 0,0
15.04.2019 06:00:00 10,4 8,3 9,5 13 7 29 16 NNE 1015,4 44 0,4
15.04.2019 05:00:00 10,3 8,6 9,5 10 5 16 8 N 1015,2 22 0,2
15.04.2019 04:00:00 10,2 8,8 9,3 13 7 23 12 N 1015,1 7 1,1
15.04.2019 03:00:00 9,8 8,6 8,9 7 4 14 8 NNW 1014,7 3,4 1,0
15.04.2019 02:00:00 9,4 8,0 8,7 4 2 8 4 WSW 1014,9 6 1,4
15.04.2019 01:00:00 9,1 7,4 8,6 3 2 28 15 WNW 1015,0 32 2,2
15.04.2019 00:00:00 10,1 7,9 9,5 21 12 34 18 NE 1014,3 3,5 0,4
14.04.2019 23:00:00 11,9 7,6 11,4 13 7 23 12 N 1013,8 54 0,0
14.04.2019 22:00:00 11,3 8,3 9,5 8 4 15 8 NNE 1013,6 44 0,0

tt = Température de l'air
td = dewpoint
tt 5cm = Température de l'air 5cm
ff = Vitesse du vent
fx = gusts
dd = Direction du vent
ppp = reduced air pressure
vv = visibility
rr = Quantités de précipitations

stations d'obs. à proximité